Orbital Elements at Epoch 2459200.5 (2020-Dec-17.0) TDB
Reference: JPL 20 (heliocentric ecliptic J2000)
Element | Value | Uncertainty (1-sigma) | Units |
e | .09364567596414995 | 3.7391e-08 | |
a | 2.250676487953939 | 1.0422e-08 | au |
q | 2.039910366862873 | 8.4971e-08 | au |
i | 7.533249231383039 | 4.0246e-06 | deg |
node | 151.4614437523843 | 3.0315e-05 | deg |
peri | 94.77711035672293 | 3.9228e-05 | deg |
M | 181.4636748523626 | 2.7902e-05 | deg |
tp | 2459812.134717106820 (2022-Aug-20.63471711) | 9.8112e-05 | TDB |
period | 1233.29803039451 3.38 | 8.5666e-06 2.345e-08 | d yr |
n | .2919002472458684 | 2.0276e-09 | deg/d |
Q | 2.461442609045005 | 1.1398e-08 | au |
|
| | Orbit Determination Parameters
Additional Information
|